Starlink 32327

operational
NORAD ID: 61641 Int'l Des: 2024-191 Owner: SPXS Country: US Constellation: starlink
LEOCIRCULAR

About Starlink 32327

Description loading...

Live Position

Loading 3D Globe...

Upcoming Passes

Altitude History

Altitude vs Time

uPlot chart will show altitude changes over time

Two-Line Element Set

1 61641U 24191W 25259.14187240 .00001222 00000-0 53933-4 0 9999
2 61641 43.0007 60.0687 0001948 282.3765 77.6869 15.27583705 50849
Epoch: Sep 16, 2025 • Age: 8 hours

Current Status

Altitude 482.1 km
Velocity 7.63 km/s
Sub-Earth Point 9.22°N, 97.14°W
Launch Date Oct 23, 2024
Age 0.8 years
Type internet

Technical Details

Classification Payload
Mass 730.00 kg
Dry Mass 700.00 kg
Total Mass 730.00 kg
Length 0.30 m
Diameter 4.10 m
Span 29.00 m
Shape Box + pan
Manufacturer SPXS
Bus Type Starlink V2M
Phase Status In Orbit
Owner/State SPXS/US

Large Constellations

Loading constellations...